STARLINK-3912 (52502 NORAD) Tracking and Keplerian Element Data

This shows tracking and keplerian element data for the satellite.

Feedback or suggestion? Click here.




ElementValue
Catalog52502
NameSTARLINK-3912
Epoch Orbit130
Epoch Day167.08334491
Epoch Year2022
RAAN64.956
Inclination53.2173
Eccentricity0.0001614
Argument of Perigee49.8322
Mean Anonmoly109.8572
Mean Motion15.73184367
Decay Rate0.00089038
L11 52502U 22049BD 22167.08334491 .00089038 00000+0 63253-3 0 9990
L22 52502 53.2173 64.9560 0001614 49.8322 109.8572 15.73184367 1308

Live tracking and technical data element details for STARLINK-3912 (NORAD 52502). STARLINK-3912 can be tracked NOW for your location showing map with azimuth and elevation plus other details from your city location.

Track the satellite on the map from your city or location and see movement details for azimuth, elevation, latitude, longitude, range, height, and movement on the map or in text.







IsCatalogInMostPopularTable: catalog: 52502, numindb: 1
Update: records affected: 1



GetName: 52502 STARLINK-3912

Hit Count: updated at: Mon, 27 Jun 2022 04:47:33 GMT